M I D A S
Marine Information and Data Acquisition System
Tripno 1884 of the Zeeleeuw from 2010-05-18 07:04:42 to 2010-05-18 13:57:27
Back to CruiseResearch ActivitiesStationsMapUnderway DataData graphs

EquipmentUnitsComments
TimeDGPSUTC
LatitudeDGPSDM.mWGS84
LongitudeDGPSDM.mWGS84
SpeedMeteo Stationm/sRelative wind speed
DirectionMeteo StationdegRelative wind direction
TemperatureMeteo Stationdeg CelciusAir temperature
PressureMeteo StationPaAtmospheric pressure
HumidityMeteo Station%Relative humidity
Missing or incorrect values are displayed as -999
Metereological data collected by the RV Zeeleeuw from 2010-05-18 07:07:35 to 2010-05-18 14:02:46
Time Latitude Longitude Speed Direction Temperature Pressure Humidity
2010-05-18 07:08 51°13.676 2°55.901 -999 35 10.9 102920 37
2010-05-18 07:09 51°13.693 2°55.812 0.1 32 10.8 102920 37
2010-05-18 07:10 51°13.699 2°55.742 0.1 4 10.7 102920 37
2010-05-18 07:11 51°13.708 2°55.738 -999 -999 10.7 102920 37
2010-05-18 07:12 51°13.735 2°55.735 -999 358 10.7 102920 37
2010-05-18 07:13 51°13.809 2°55.661 2.4 331 10.7 102920 37
2010-05-18 07:14 51°13.935 2°55.553 3.5 331 10.6 102920 35
2010-05-18 07:15 51°14.065 2°55.444 2.1 332 10.5 102920 39
2010-05-18 07:16 51°14.205 2°55.331 4.4 332 10.5 102920 36
2010-05-18 07:17 51°14.367 2°55.172 5 329 10.5 102920 35
2010-05-18 07:18 51°14.553 2°55.008 5.5 328 10.4 102920 36
2010-05-18 07:19 51°14.726 2°54.781 5.5 330 10.4 102910 36
2010-05-18 07:20 51°14.917 2°54.602 5.5 331 10.4 102910 38
2010-05-18 07:21 51°15.1 2°54.402 5.2 332 10.4 102920 36
2010-05-18 07:22 51°15.283 2°54.19 5.2 334 10.3 102910 38
2010-05-18 07:26 51°15.962 2°53.299 4.8 331 10.4 102920 38
2010-05-18 07:27 51°16.155 2°53.113 4.8 330 10.4 102920 36
2010-05-18 07:28 51°16.363 2°52.973 4.5 331 10.4 102920 38
2010-05-18 07:29 51°16.575 2°52.849 5 331 10.4 102920 35
2010-05-18 07:30 51°16.787 2°52.725 5 334 10.3 102920 36
2010-05-18 07:31 51°16.997 2°52.599 5.5 335 10.3 102920 36
2010-05-18 07:32 51°17.209 2°52.472 5.2 333 10.3 102930 38
2010-05-18 07:33 51°17.422 2°52.345 5.4 333 10.3 102930 37
2010-05-18 07:34 51°17.635 2°52.219 5.1 333 10.3 102920 38
2010-05-18 07:35 51°17.848 2°52.092 5.1 331 10.3 102920 38
2010-05-18 07:36 51°18.06 2°51.964 5 331 10.3 102930 36
2010-05-18 07:37 51°18.271 2°51.829 4.6 333 10.3 102930 37
2010-05-18 07:38 51°18.483 2°51.693 5.3 331 10.3 102930 36
2010-05-18 07:39 51°18.693 2°51.553 5 333 10.3 102920 36
2010-05-18 07:40 51°18.903 2°51.414 4.6 329 10.3 102920 36
2010-05-18 07:41 51°19.113 2°51.277 4.8 332 10.3 102920 36
2010-05-18 07:42 51°19.322 2°51.143 4.6 331 10.3 102930 37
2010-05-18 07:43 51°19.531 2°51.009 5.3 331 10.2 102930 36
2010-05-18 07:44 51°19.74 2°50.874 4.5 330 10.3 102930 37
2010-05-18 07:45 51°19.95 2°50.737 5.1 329 10.3 102930 36
2010-05-18 07:46 51°20.162 2°50.597 5 328 10.3 102920 38
2010-05-18 07:47 51°20.373 2°50.457 4.9 328 10.3 102930 36
2010-05-18 07:48 51°20.583 2°50.32 5.1 326 10.3 102920 37
2010-05-18 07:49 51°20.8 2°50.235 5 325 10.3 102930 35
2010-05-18 07:50 51°21.02 2°50.165 4.8 326 10.4 102930 36
2010-05-18 07:51 51°21.237 2°50.212 4.2 327 10.4 102930 36
2010-05-18 07:52 51°21.447 2°50.306 4.7 328 10.4 102930 38
2010-05-18 07:53 51°21.66 2°50.391 5.1 329 10.4 102930 36
2010-05-18 07:54 51°21.875 2°50.471 4.5 332 10.4 102930 36
2010-05-18 07:55 51°22.095 2°50.506 5.1 329 10.4 102930 38
2010-05-18 07:56 51°22.32 2°50.452 4.8 327 10.4 102920 37
2010-05-18 07:57 51°22.539 2°50.338 5.1 327 10.4 102930 35
2010-05-18 07:58 51°22.747 2°50.178 5.4 327 10.4 102920 37
2010-05-18 07:59 51°22.949 2°50.002 5.6 330 10.4 102930 39
2010-05-18 08:00 51°23.15 2°49.832 4.9 330 10.4 102920 38
2010-05-18 08:01 51°23.354 2°49.664 5.4 332 10.2 102920 38
2010-05-18 08:02 51°23.558 2°49.499 5.5 331 10.2 102930 37
2010-05-18 08:03 51°23.762 2°49.332 5.5 331 10.2 102930 36
2010-05-18 08:04 51°23.966 2°49.166 5.4 332 10.2 102930 38
2010-05-18 08:05 51°24.17 2°48.999 5.4 333 10.2 102940 34
2010-05-18 08:06 51°24.374 2°48.833 5.1 333 10.2 102930 37
2010-05-18 08:07 51°24.578 2°48.665 5.6 332 10.2 102930 38
2010-05-18 08:08 51°24.784 2°48.499 5.5 333 10.2 102940 37
2010-05-18 08:09 51°24.99 2°48.335 5.3 330 10.2 102930 38
2010-05-18 08:10 51°25.212 2°48.276 5.1 333 10.2 102930 36
2010-05-18 08:11 51°25.436 2°48.251 5.6 334 10.2 102930 37
2010-05-18 08:12 51°25.66 2°48.217 5.4 332 10.2 102930 37
2010-05-18 08:13 51°25.883 2°48.178 5.2 332 10.2 102930 35
2010-05-18 08:14 51°26.105 2°48.138 5.5 332 10.3 102930 35
2010-05-18 08:15 51°26.328 2°48.097 5.1 331 10.3 102930 36
2010-05-18 08:16 51°26.553 2°48.058 5.5 331 10.3 102930 35
2010-05-18 08:17 51°26.776 2°48.021 5.3 332 10.2 102930 35
2010-05-18 08:18 51°27.001 2°47.986 5.7 332 10.2 102920 35
2010-05-18 08:19 51°27.225 2°47.954 5 332 10.3 102940 37
2010-05-18 08:20 51°27.45 2°47.921 5.6 332 10.3 102940 37
2010-05-18 08:21 51°27.672 2°47.88 5.5 330 10.3 102940 33
2010-05-18 08:22 51°27.893 2°47.843 5.2 332 10.3 102940 35
2010-05-18 08:23 51°28.114 2°47.807 5.5 332 10.3 102940 36
2010-05-18 08:24 51°28.337 2°47.771 5.4 330 10.3 102940 35
2010-05-18 08:25 51°28.56 2°47.736 5.4 331 10.3 102940 36
2010-05-18 08:26 51°28.842 2°47.691 5.9 286 10.3 102940 35
2010-05-18 08:29 51°29.554 2°47.583 5.8 278 10.2 102940 37
2010-05-18 08:30 51°29.776 2°47.541 5.5 333 10.2 102940 37
2010-05-18 08:31 51°29.999 2°47.5 5.6 282 10.2 102950 36
2010-05-18 08:32 51°30.219 2°47.455 5.4 330 10.3 102950 37
2010-05-18 08:33 51°30.436 2°47.41 5.6 278 10.3 102950 37
2010-05-18 08:34 51°30.651 2°47.365 5.3 332 10.3 102960 37
2010-05-18 08:35 51°30.868 2°47.32 5.8 280 10.3 102950 36
2010-05-18 08:36 51°31.084 2°47.276 5.6 331 10.3 102960 36
2010-05-18 08:37 51°31.301 2°47.232 5.9 278 10.3 102950 35
2010-05-18 08:38 51°31.517 2°47.182 5.4 328 10.3 102960 38
2010-05-18 08:39 51°31.731 2°47.127 5.6 278 10.3 102950 37
2010-05-18 08:40 51°31.947 2°47.074 5.5 329 10.3 102960 35
2010-05-18 08:41 51°32.163 2°47.019 5.6 285 10.3 102960 37
2010-05-18 08:42 51°32.379 2°46.965 5.2 329 10.3 102960 38
2010-05-18 08:43 51°32.596 2°46.911 5.6 280 10.3 102960 36
2010-05-18 08:44 51°32.812 2°46.861 5.7 329 10.3 102950 35
2010-05-18 08:45 51°33.027 2°46.814 5.8 285 10.3 102960 38
2010-05-18 08:46 51°33.241 2°46.766 5.6 328 10.4 102960 35
2010-05-18 08:47 51°33.456 2°46.717 5.4 279 10.4 102960 35
2010-05-18 08:48 51°33.671 2°46.667 5.7 329 10.3 102960 36
2010-05-18 08:49 51°33.886 2°46.619 5.5 281 10.3 102960 35
2010-05-18 08:50 51°34.101 2°46.57 5.5 328 10.3 102960 38
2010-05-18 08:51 51°34.317 2°46.52 5.6 286 10.3 102960 35
2010-05-18 08:52 51°34.534 2°46.47 5.6 329 10.3 102960 36
2010-05-18 08:53 51°34.751 2°46.424 5.6 280 10.3 102960 36
2010-05-18 08:54 51°34.968 2°46.377 5.7 328 10.3 102960 36
2010-05-18 08:55 51°35.183 2°46.331 5.5 278 10.3 102960 36
2010-05-18 08:56 51°35.398 2°46.282 5.9 326 10.3 102960 38
2010-05-18 08:57 51°35.615 2°46.229 6.4 328 10.4 102960 37
2010-05-18 08:58 51°35.833 2°46.171 6.2 328 10.3 102960 36
2010-05-18 08:59 51°36.052 2°46.112 5.9 283 10.3 102960 36
2010-05-18 09:00 51°36.258 2°46.062 4.9 330 10.3 102970 36
2010-05-18 09:01 51°36.443 2°46.017 5 282 10.3 102960 38
2010-05-18 09:02 51°36.602 2°45.973 3.9 283 10.3 102970 36
2010-05-18 09:03 51°36.75 2°45.966 4.3 329 10.3 102970 38
2010-05-18 09:04 51°36.871 2°46.106 3.9 278 10.3 102970 38
2010-05-18 09:05 51°36.966 2°46.284 3.2 322 10.3 102970 38
2010-05-18 09:06 51°37.026 2°46.395 2.1 280 10.5 102970 38
2010-05-18 09:07 51°37.089 2°46.445 1.9 300 10.6 102970 36
2010-05-18 09:08 51°37.167 2°46.475 2.7 279 10.6 102970 37
2010-05-18 09:09 51°37.281 2°46.529 4.8 282 10.7 102970 35
2010-05-18 09:10 51°37.423 2°46.6 4.1 328 10.7 102970 38
2010-05-18 09:11 51°37.573 2°46.681 5.3 281 10.6 102960 37
2010-05-18 09:12 51°37.747 2°46.816 5.7 328 10.5 102960 35
2010-05-18 09:13 51°37.927 2°46.954 5.3 286 10.5 102960 37
2010-05-18 09:14 51°38.111 2°47.081 5.5 305 10.4 102970 36
2010-05-18 09:15 51°38.298 2°47.198 5.6 280 10.5 102960 37
2010-05-18 09:16 51°38.484 2°47.315 5.8 326 10.5 102960 36
2010-05-18 09:17 51°38.668 2°47.437 6 284 10.5 102960 35
2010-05-18 09:18 51°38.852 2°47.554 5.5 327 10.5 102960 36
2010-05-18 09:19 51°39.036 2°47.671 5.6 284 10.5 102950 36
2010-05-18 09:20 51°39.222 2°47.772 6 304 10.5 102960 35
2010-05-18 09:21 51°39.408 2°47.881 5.9 277 10.5 102970 38
2010-05-18 09:22 51°39.597 2°47.979 5.9 279 10.5 102960 36
2010-05-18 09:23 51°39.783 2°48.081 5.6 302 10.4 102960 37
2010-05-18 09:24 51°39.97 2°48.186 5.6 282 10.4 102960 38
2010-05-18 09:25 51°40.155 2°48.304 6 283 10.4 102960 38
2010-05-18 09:26 51°40.343 2°48.411 5.7 326 10.4 102960 37
2010-05-18 09:27 51°40.528 2°48.527 5.9 282 10.4 102970 36
2010-05-18 09:28 51°40.715 2°48.633 5.7 324 10.4 102960 37
2010-05-18 09:30 51°40.947 2°48.791 5.1 327 10.3 102970 37
2010-05-18 09:31 51°41.196 2°48.941 6.1 327 10.3 102960 38
2010-05-18 09:32 51°41.469 2°49.092 6.6 323 10.3 102960 36
2010-05-18 09:33 51°41.655 2°49.229 6 -999 10.3 102960 38
2010-05-18 09:34 51°41.83 2°49.399 5.8 325 10.3 102960 38
2010-05-18 09:35 51°42.027 2°49.473 6.3 285 10.3 102960 36
2010-05-18 09:36 51°42.22 2°49.329 6.2 326 10.2 102970 36
2010-05-18 09:37 51°42.398 2°49.119 7.2 -999 10.2 102960 36
2010-05-18 09:38 51°42.492 2°48.792 6.4 334 10.2 102960 37
2010-05-18 09:39 51°42.447 2°48.42 6 280 10.2 102960 36
2010-05-18 09:40 51°42.295 2°48.113 6.2 340 10.1 102960 36
2010-05-18 09:41 51°42.085 2°47.904 5 280 10.1 102960 38
2010-05-18 09:42 51°41.86 2°47.737 5.6 278 10.1 102960 38
2010-05-18 09:43 51°41.638 2°47.56 5.9 278 10.1 102960 38
2010-05-18 09:44 51°41.412 2°47.395 4.8 277 10.1 102960 37
2010-05-18 09:45 51°41.179 2°47.265 5.2 284 10.1 102960 36
2010-05-18 09:46 51°40.947 2°47.131 5.2 340 10.1 102960 39
2010-05-18 09:47 51°40.716 2°46.993 5.8 285 10.1 102960 36
2010-05-18 09:48 51°40.483 2°46.856 5.1 337 10.1 102960 38
2010-05-18 09:49 51°40.25 2°46.716 4.8 -999 10.1 102960 38
2010-05-18 09:50 51°40.046 2°46.495 5.4 284 10.2 102960 38
2010-05-18 09:51 51°39.92 2°46.161 6 280 10.2 102960 37
2010-05-18 09:52 51°39.947 2°45.792 7.4 281 10.2 102960 36
2010-05-18 09:53 51°40.022 2°45.441 6.3 280 10.2 102960 37
2010-05-18 09:54 51°40.102 2°45.091 6.4 281 10.1 102960 37
2010-05-18 09:55 51°40.183 2°44.743 6.4 -999 10.1 102960 38
2010-05-18 09:56 51°40.262 2°44.39 7.1 282 10.1 102950 37
2010-05-18 09:57 51°40.324 2°44.025 6.9 285 10.2 102960 36
2010-05-18 09:58 51°40.387 2°43.66 6.4 284 10.1 102960 38
2010-05-18 09:59 51°40.452 2°43.293 6.5 -999 10.1 102960 36
2010-05-18 10:00 51°40.519 2°42.926 6.7 282 10.1 102960 38
2010-05-18 10:01 51°40.587 2°42.56 6.3 -999 10.1 102960 36
2010-05-18 10:02 51°40.655 2°42.192 6.5 284 10.1 102960 37
2010-05-18 10:03 51°40.725 2°41.824 6.9 279 10.1 102960 36
2010-05-18 10:04 51°40.794 2°41.455 7.1 283 10.1 102960 38
2010-05-18 10:05 51°40.864 2°41.086 7.2 285 10.1 102960 36
2010-05-18 10:06 51°40.933 2°40.718 7 278 10.1 102970 36
2010-05-18 10:07 51°41.002 2°40.351 7 284 10.1 102960 36
2010-05-18 10:08 51°41.068 2°39.982 7.2 279 10.1 102970 37
2010-05-18 10:09 51°41.136 2°39.616 6.6 -999 10.1 102970 36
2010-05-18 10:10 51°41.202 2°39.252 6.6 283 10.2 102960 36
2010-05-18 10:11 51°41.268 2°38.891 6.2 -999 10.2 102970 36
2010-05-18 10:12 51°41.332 2°38.531 6.6 280 10.2 102970 38
2010-05-18 10:13 51°41.397 2°38.168 6.2 284 10.2 102960 38
2010-05-18 10:14 51°41.462 2°37.805 6.9 284 10.2 102960 38
2010-05-18 10:15 51°41.472 2°37.421 7.2 -999 10.2 102970 36
2010-05-18 10:16 51°41.354 2°37.097 5.6 278 10.2 102970 36
2010-05-18 10:17 51°41.116 2°37.032 5.2 -999 10.3 102970 36
2010-05-18 10:18 51°40.876 2°36.903 3.3 283 10.2 102970 36
2010-05-18 10:19 51°40.635 2°36.774 5.5 284 10.3 102970 36
2010-05-18 10:20 51°40.392 2°36.656 5.5 284 10.3 102970 36
2010-05-18 10:21 51°40.148 2°36.54 5.8 -999 10.2 102960 37
2010-05-18 10:22 51°39.904 2°36.425 5.8 280 10.3 102970 37
2010-05-18 10:23 51°39.661 2°36.309 5.6 277 10.3 102970 37
2010-05-18 10:24 51°39.417 2°36.192 5.5 337 10.4 102960 38
2010-05-18 10:25 51°39.173 2°36.076 5.4 278 10.4 102960 36
2010-05-18 10:26 51°38.928 2°35.958 6 279 10.4 102970 36
2010-05-18 10:27 51°38.684 2°35.826 5.8 -999 10.4 102960 35
2010-05-18 10:28 51°38.44 2°35.699 5.9 285 10.4 102960 35
2010-05-18 10:29 51°38.197 2°35.571 6.1 283 10.4 102970 37
2010-05-18 10:30 51°37.955 2°35.447 5.9 278 10.4 102960 36
2010-05-18 10:31 51°37.713 2°35.324 6 -999 10.4 102960 37
2010-05-18 10:34 51°37.102 2°35.084 5.9 283 10.4 102960 37
2010-05-18 10:36 51°36.511 2°34.881 5.8 337 10.4 102970 36
2010-05-18 10:37 51°36.264 2°34.809 6 336 10.4 102970 36
2010-05-18 10:38 51°36.018 2°34.729 5.7 335 10.4 102960 35
2010-05-18 10:39 51°35.767 2°34.649 5.6 335 10.4 102960 37
2010-05-18 10:40 51°35.524 2°34.571 5.7 336 10.3 102970 36
2010-05-18 10:41 51°35.277 2°34.491 5.3 335 10.4 102970 36
2010-05-18 10:42 51°35.028 2°34.41 5.6 334 10.4 102960 38
2010-05-18 10:43 51°34.779 2°34.325 5.4 335 10.4 102970 37
2010-05-18 10:44 51°34.532 2°34.237 4.7 336 10.4 102970 37
2010-05-18 10:45 51°34.285 2°34.149 5.2 336 10.4 102970 36
2010-05-18 10:46 51°34.039 2°34.063 5.4 337 10.4 102970 36
2010-05-18 10:47 51°33.788 2°33.981 5.4 335 10.5 102970 37
2010-05-18 10:48 51°33.544 2°33.905 5.7 336 10.4 102970 36
2010-05-18 10:49 51°33.292 2°33.825 5.7 333 10.4 102970 38
2010-05-18 10:50 51°33.052 2°33.752 5.5 336 10.5 102970 36
2010-05-18 10:51 51°32.803 2°33.677 5.4 338 10.5 102970 38
2010-05-18 10:52 51°32.563 2°33.604 5.3 335 10.5 102970 36
2010-05-18 10:53 51°32.319 2°33.529 5 333 10.5 102970 38
2010-05-18 10:54 51°32.075 2°33.455 5.1 333 10.5 102970 36
2010-05-18 10:55 51°31.832 2°33.38 4.8 335 10.5 102970 38
2010-05-18 10:56 51°31.585 2°33.3 4.5 332 10.5 102970 38
2010-05-18 10:57 51°31.347 2°33.224 4.7 332 10.5 102970 38
2010-05-18 10:58 51°31.1 2°33.143 4.9 334 10.5 102970 37
2010-05-18 10:59 51°30.863 2°33.068 5 332 10.4 102970 37
2010-05-18 11:00 51°30.621 2°32.988 5.3 333 10.4 102970 36
2010-05-18 11:01 51°30.376 2°32.927 5 331 10.4 102970 38
2010-05-18 11:02 51°30.156 2°33.02 5.1 329 10.4 102970 36
2010-05-18 11:03 51°29.98 2°33.248 5.3 327 10.4 102960 36
2010-05-18 11:04 51°29.811 2°33.471 5.1 330 10.5 102960 35
2010-05-18 11:05 51°29.622 2°33.666 4.9 330 10.5 102960 36
2010-05-18 11:06 51°29.472 2°33.905 4.9 331 10.5 102960 36
2010-05-18 11:07 51°29.375 2°34.21 5.2 328 10.5 102970 38
2010-05-18 11:08 51°29.289 2°34.517 5.5 325 10.5 102960 36
2010-05-18 11:09 51°29.274 2°34.838 5.4 325 10.6 102960 35
2010-05-18 11:10 51°29.269 2°35.16 5.2 324 10.6 102960 37
2010-05-18 11:11 51°29.269 2°35.487 6 328 10.7 102950 37
2010-05-18 11:12 51°29.356 2°35.763 6.4 328 10.7 102960 36
2010-05-18 11:13 51°29.53 2°35.884 5.9 333 10.7 102950 35
2010-05-18 11:14 51°29.732 2°35.938 6.8 330 10.7 102960 35
2010-05-18 11:15 51°29.929 2°35.989 6.5 330 10.6 102960 35
2010-05-18 11:16 51°30.126 2°36.062 6.4 331 10.7 102960 35
2010-05-18 11:17 51°30.32 2°36.149 6.4 332 10.7 102960 37
2010-05-18 11:18 51°30.517 2°36.237 6.6 332 10.7 102960 36
2010-05-18 11:19 51°30.707 2°36.323 6.4 333 10.6 102950 37
2010-05-18 11:20 51°30.901 2°36.41 6.4 332 10.6 102950 38
2010-05-18 11:21 51°31.093 2°36.448 5.2 335 10.6 102960 36
2010-05-18 11:22 51°31.181 2°36.167 5.3 333 10.6 102950 36
2010-05-18 11:23 51°31.185 2°35.899 3.5 336 10.4 102960 38
2010-05-18 11:24 51°31.179 2°35.679 3.7 336 10.4 102960 38
2010-05-18 11:25 51°31.167 2°35.479 2.8 341 10.5 102960 37
2010-05-18 11:26 51°31.121 2°35.325 0.2 349 10.5 102960 34
2010-05-18 11:27 51°31.041 2°35.243 -999 348 10.5 102960 36
2010-05-18 11:28 51°30.955 2°35.206 -999 339 10.6 102960 37
2010-05-18 11:29 51°30.868 2°35.186 -999 328 10.7 102960 37
2010-05-18 11:30 51°30.779 2°35.18 -999 332 10.8 102960 37
2010-05-18 11:31 51°30.693 2°35.188 -999 330 11 102960 37
2010-05-18 11:32 51°30.61 2°35.206 -999 334 11.1 102960 37
2010-05-18 11:33 51°30.535 2°35.167 -999 344 11.2 102960 37
2010-05-18 11:34 51°30.483 2°35.078 -999 348 11 102960 37
2010-05-18 11:35 51°30.464 2°34.972 1.3 345 10.9 102960 37
2010-05-18 11:38 51°30.571 2°34.971 5.5 328 10.7 102950 35
2010-05-18 11:39 51°30.844 2°35.312 5.7 329 10.7 102950 36
2010-05-18 11:40 51°31.002 2°35.5 6.4 328 10.7 102950 38
2010-05-18 11:41 51°31.158 2°35.687 6.2 329 10.6 102950 37
2010-05-18 11:42 51°31.313 2°35.878 6.4 330 10.6 102950 36
2010-05-18 11:43 51°31.467 2°36.064 6.1 330 10.7 102960 36
2010-05-18 11:44 51°31.626 2°36.257 6 328 10.7 102950 36
2010-05-18 11:45 51°31.784 2°36.451 6 327 10.7 102950 37
2010-05-18 11:46 51°31.94 2°36.639 6.2 325 10.7 102950 38
2010-05-18 11:47 51°32.1 2°36.831 5.7 326 10.7 102950 37
2010-05-18 11:48 51°32.257 2°37.023 5.4 327 10.6 102960 36
2010-05-18 11:49 51°32.411 2°37.213 5.7 326 10.6 102960 37
2010-05-18 11:50 51°32.582 2°37.371 6.6 328 10.6 102960 36
2010-05-18 11:51 51°32.767 2°37.508 6.1 328 10.6 102960 36
2010-05-18 11:52 51°32.946 2°37.643 6.2 326 10.6 102960 35
2010-05-18 11:53 51°33.127 2°37.781 5.7 327 10.6 102960 36
2010-05-18 11:54 51°33.307 2°37.921 6.4 330 10.7 102950 36
2010-05-18 11:55 51°33.488 2°38.061 6.2 329 10.6 102960 37
2010-05-18 11:56 51°33.675 2°38.205 6.4 329 10.6 102960 36
2010-05-18 11:57 51°33.854 2°38.346 6.4 331 10.6 102960 35
2010-05-18 11:58 51°34.039 2°38.491 6.3 330 10.5 102950 37
2010-05-18 11:59 51°34.22 2°38.632 6.3 329 10.5 102950 37
2010-05-18 12:00 51°34.404 2°38.774 6.1 329 10.5 102960 36
2010-05-18 12:01 51°34.588 2°38.918 6.3 328 10.5 102960 35
2010-05-18 12:02 51°34.773 2°39.062 5.9 327 10.5 102950 35
2010-05-18 12:03 51°34.97 2°39.158 6.1 328 10.5 102960 35
2010-05-18 12:04 51°35.17 2°39.237 5.9 327 10.5 102960 35
2010-05-18 12:05 51°35.372 2°39.319 6.6 328 10.5 102960 35
2010-05-18 12:06 51°35.569 2°39.402 5.7 325 10.6 102960 35
2010-05-18 12:07 51°35.683 2°39.655 5 324 10.5 102960 37
2010-05-18 12:08 51°35.644 2°39.978 4.1 330 10.5 102960 35
2010-05-18 12:09 51°35.483 2°40.222 4.4 332 10.5 102960 38
2010-05-18 12:10 51°35.283 2°40.408 4.7 336 10.5 102960 36
2010-05-18 12:11 51°35.067 2°40.552 4.6 333 10.5 102960 35
2010-05-18 12:12 51°34.842 2°40.68 4.6 332 10.5 102960 35
2010-05-18 12:13 51°34.612 2°40.805 4.8 335 10.5 102960 37
2010-05-18 12:14 51°34.38 2°40.932 4.9 334 10.5 102960 38
2010-05-18 12:15 51°34.155 2°41.051 4.6 334 10.5 102970 35
2010-05-18 12:16 51°33.911 2°41.091 5.3 333 10.5 102960 36
2010-05-18 12:17 51°33.663 2°41.114 4.7 336 10.6 102970 36
2010-05-18 12:18 51°33.413 2°41.14 4.7 336 10.6 102970 38
2010-05-18 12:19 51°33.165 2°41.166 4.9 336 10.6 102970 38
2010-05-18 12:20 51°32.918 2°41.198 4.9 336 10.6 102960 35
2010-05-18 12:21 51°32.674 2°41.235 4.9 336 10.6 102960 37
2010-05-18 12:22 51°32.429 2°41.271 4.9 337 10.6 102970 36
2010-05-18 12:23 51°32.186 2°41.305 4.9 333 10.6 102960 37
2010-05-18 12:24 51°31.943 2°41.343 4.5 336 10.7 102970 37
2010-05-18 12:25 51°31.698 2°41.377 4.8 335 10.7 102960 37
2010-05-18 12:26 51°31.456 2°41.414 4.3 331 10.7 102960 38
2010-05-18 12:27 51°31.216 2°41.451 4.4 335 10.8 102960 37
2010-05-18 12:28 51°30.978 2°41.492 4.5 332 10.8 102960 36
2010-05-18 12:29 51°30.735 2°41.532 4.2 336 10.8 102960 37
2010-05-18 12:30 51°30.501 2°41.574 4.7 329 10.8 102960 37
2010-05-18 12:31 51°30.261 2°41.605 4.6 332 10.8 102960 38
2010-05-18 12:32 51°30.02 2°41.638 4.9 331 10.8 102960 36
2010-05-18 12:33 51°29.78 2°41.673 4.5 329 10.8 102960 36
2010-05-18 12:34 51°29.536 2°41.708 4.4 334 10.7 102960 36
2010-05-18 12:35 51°29.298 2°41.742 4.2 331 10.7 102960 37
2010-05-18 12:36 51°29.056 2°41.775 4.4 332 10.8 102960 37
2010-05-18 12:37 51°28.815 2°41.811 4.5 331 10.9 102960 36
2010-05-18 12:38 51°28.574 2°41.845 4.1 331 10.9 102960 37
2010-05-18 12:40 51°28.202 2°41.898 4.4 332 10.9 102960 37
2010-05-18 12:42 51°27.649 2°41.981 4.3 283 10.9 102960 37
2010-05-18 12:43 51°27.411 2°42.017 4 281 10.9 102960 38
2010-05-18 12:44 51°27.173 2°42.054 4.1 283 10.9 102960 36
2010-05-18 12:45 51°26.936 2°42.089 3.9 283 10.9 102960 36
2010-05-18 12:46 51°26.706 2°42.111 4.2 281 10.9 102960 36
2010-05-18 12:47 51°26.469 2°42.135 4.1 280 10.9 102960 36
2010-05-18 12:48 51°26.237 2°42.16 4.1 283 11 102970 36
2010-05-18 12:49 51°26.015 2°42.255 4.1 328 10.9 102970 38
2010-05-18 12:50 51°25.807 2°42.392 4.6 331 10.9 102960 35
2010-05-18 12:51 51°25.591 2°42.533 4 328 10.9 102960 37
2010-05-18 12:52 51°25.375 2°42.671 4.4 330 10.9 102950 36
2010-05-18 12:53 51°25.158 2°42.809 4.2 330 10.9 102960 37
2010-05-18 12:54 51°24.94 2°42.95 4.5 283 11 102960 36
2010-05-18 12:55 51°24.726 2°43.107 4.2 327 10.9 102960 38
2010-05-18 12:56 51°24.516 2°43.265 3.9 330 10.9 102960 35
2010-05-18 12:57 51°24.308 2°43.417 3.8 328 10.9 102960 36
2010-05-18 12:58 51°24.103 2°43.563 3.8 329 10.9 102960 37
2010-05-18 12:59 51°23.898 2°43.711 3.9 331 10.9 102950 38
2010-05-18 13:00 51°23.691 2°43.859 3.3 326 10.9 102950 36
2010-05-18 13:01 51°23.488 2°44.003 3.8 325 11 102960 38
2010-05-18 13:02 51°23.278 2°44.157 4 331 11 102960 37
2010-05-18 13:03 51°23.071 2°44.312 4.3 283 10.9 102950 35
2010-05-18 13:04 51°22.862 2°44.466 4.2 331 11 102950 38
2010-05-18 13:05 51°22.652 2°44.62 4.3 284 11 102950 36
2010-05-18 13:06 51°22.462 2°44.819 3.9 326 11 102950 36
2010-05-18 13:07 51°22.298 2°45.068 4.4 277 11.1 102950 37
2010-05-18 13:08 51°22.134 2°45.322 4.3 322 11.1 102950 36
2010-05-18 13:09 51°21.966 2°45.576 4.4 324 11 102950 36
2010-05-18 13:10 51°21.8 2°45.827 4.1 330 11 102950 38
2010-05-18 13:11 51°21.63 2°46.086 4.4 278 11.1 102940 38
2010-05-18 13:12 51°21.461 2°46.342 4 283 11.1 102940 37
2010-05-18 13:13 51°21.297 2°46.595 4.5 324 11.1 102950 36
2010-05-18 13:14 51°21.127 2°46.855 4.1 324 11.1 102950 38
2010-05-18 13:15 51°20.961 2°47.11 3.9 322 11.1 102940 38
2010-05-18 13:16 51°20.796 2°47.365 3.9 284 11.2 102940 37
2010-05-18 13:17 51°20.629 2°47.616 4.3 323 11.2 102940 38
2010-05-18 13:18 51°20.463 2°47.862 3.5 283 11.3 102940 36
2010-05-18 13:19 51°20.298 2°48.107 3.7 283 11.3 102930 38
2010-05-18 13:20 51°20.134 2°48.35 3.3 319 11.3 102930 36
2010-05-18 13:21 51°19.969 2°48.599 3.5 283 11.4 102930 36
2010-05-18 13:22 51°19.805 2°48.848 3.8 318 11.4 102930 36
2010-05-18 13:23 51°19.641 2°49.1 3.8 286 11.4 102930 37
2010-05-18 13:24 51°19.476 2°49.356 4.5 27 11.4 102930 36
2010-05-18 13:25 51°19.31 2°49.611 4.3 285 11.5 102930 36
2010-05-18 13:26 51°19.145 2°49.87 4.3 22 11.5 102930 36
2010-05-18 13:27 51°18.982 2°50.136 4.7 22 11.5 102930 36
2010-05-18 13:28 51°18.817 2°50.399 4.1 283 11.5 102930 36
2010-05-18 13:29 51°18.641 2°50.635 3.1 22 11.4 102930 35
2010-05-18 13:30 51°18.455 2°50.853 3.7 283 11.4 102930 37
2010-05-18 13:31 51°18.271 2°51.077 3.9 317 11.5 102930 36
2010-05-18 13:32 51°18.087 2°51.301 3.2 316 11.5 102930 38
2010-05-18 13:33 51°17.898 2°51.513 3.5 319 11.5 102930 38
2010-05-18 13:34 51°17.706 2°51.723 2.9 279 11.5 102930 36
2010-05-18 13:35 51°17.512 2°51.911 3.6 319 11.4 102930 38
2010-05-18 13:36 51°17.309 2°52.103 3.1 320 11.5 102930 36
2010-05-18 13:37 51°17.117 2°52.293 3.1 316 11.6 102930 38
2010-05-18 13:38 51°16.918 2°52.49 2.9 28 11.6 102930 37
2010-05-18 13:39 51°16.719 2°52.673 3.8 277 11.5 102930 37
2010-05-18 13:40 51°16.517 2°52.857 3.3 23 11.5 102930 36
2010-05-18 13:41 51°16.314 2°53.032 3.7 23 11.5 102930 36
2010-05-18 13:45 51°15.502 2°53.745 4.3 301 11.3 102930 35
2010-05-18 13:46 51°15.32 2°53.954 4.2 307 11.3 102930 38
2010-05-18 13:47 51°15.144 2°54.194 4.6 305 11.2 102920 35
2010-05-18 13:48 51°14.979 2°54.447 5.7 308 11.2 102920 36
2010-05-18 13:49 51°14.816 2°54.694 4.8 303 11.3 102920 37
2010-05-18 13:50 51°14.636 2°54.916 4.6 303 11.3 102920 35
2010-05-18 13:51 51°14.459 2°55.122 3.5 301 11.3 102930 35
2010-05-18 13:52 51°14.312 2°55.262 1.7 308 11.3 102930 38
2010-05-18 13:53 51°14.215 2°55.355 1.9 307 11.5 102930 38
2010-05-18 13:54 51°14.127 2°55.427 1.3 305 11.6 102930 33
2010-05-18 13:55 51°14.046 2°55.486 1.2 312 11.6 102920 35
2010-05-18 13:56 51°13.954 2°55.541 0.8 307 11.6 102920 36
2010-05-18 13:57 51°13.859 2°55.61 2 307 11.7 102920 39
2010-05-18 13:58 51°13.771 2°55.688 1.9 307 11.8 102920 39
2010-05-18 13:59 51°13.726 2°55.772 1.4 303 11.7 102920 35
2010-05-18 14:00 51°13.687 2°55.861 2.7 309 11.6 102920 38
2010-05-18 14:01 51°13.665 2°55.941 3.6 301 11.6 102930 35